Weather reports worldwide

Advertisment
Hoogeveen aws, Netherlands (6279): temperature & dewpoint: 22.10.2020 15:00:00 - 28.10.2020 15:00:00 (CET)Hoogeveen aws, Netherlands (6279): temperature 5cm: 22.10.2020 15:00:00 - 28.10.2020 15:00:00 (CET)Hoogeveen aws, Netherlands (6279): wind speed & gusts: 22.10.2020 15:00:00 - 28.10.2020 15:00:00 (CET)Hoogeveen aws, Netherlands (6279): wind direction: 22.10.2020 15:00:00 - 28.10.2020 15:00:00 (CET)Hoogeveen aws, Netherlands (6279): reduced air pressure: 22.10.2020 15:00:00 - 28.10.2020 15:00:00 (CET)Hoogeveen aws, Netherlands (6279): visibility: 22.10.2020 15:00:00 - 28.10.2020 15:00:00 (CET)Hoogeveen aws, Netherlands (6279): precipitation: 22.10.2020 15:00:00 - 28.10.2020 15:00:00 (CET)
Date & Time tt [°C] td [°C] tt 5cm [°C] ff [km/h] ff [kn] fx [km/h] fx [kn] dd ppp [hPa] vv [km] rr [mm]
28.10.2020 15:00:00 10,5 8,8 10,6 28 15 - - SW 1006,1 17 -
28.10.2020 14:00:00 12,7 7,8 12,5 29 16 47 25 SW 1005,4 75 0,0
28.10.2020 13:00:00 12,6 8,7 12,6 29 16 47 25 SSW 1005,6 61 0,0
28.10.2020 12:00:00 12,5 9,0 12,8 29 16 43 23 SSW 1005,4 72 0,0
28.10.2020 11:00:00 11,2 8,6 10,9 25 14 40 21 SSW 1005,1 54 0,0
28.10.2020 10:00:00 10,3 8,4 10,5 25 14 36 19 SSW 1004,9 55 0,0
28.10.2020 09:00:00 9,2 7,9 8,9 18 10 25 14 S 1004,2 47 0,0
28.10.2020 08:00:00 9,5 8,1 9,1 18 10 36 19 S 1004,1 34 0,4
28.10.2020 07:00:00 9,9 8,8 9,6 22 12 36 19 SSW 1003,5 30 0,0
28.10.2020 06:00:00 9,8 8,9 9,4 18 10 25 14 SSW 1003,0 28 0,0
28.10.2020 05:00:00 9,7 8,9 9,2 14 8 25 14 SSW 1002,2 25 0,0
28.10.2020 04:00:00 10,0 9,2 9,3 14 8 25 14 SSW 1001,8 27 0,0
28.10.2020 03:00:00 10,6 9,5 10,3 22 12 36 19 SW 1001,5 42 0,0
28.10.2020 02:00:00 11,3 10,5 11,0 25 14 36 19 SW 1000,5 61 0,0
28.10.2020 01:00:00 10,7 10,2 10,4 25 14 43 23 SSW 999,6 59 0,8
28.10.2020 00:00:00 9,9 9,5 9,8 25 14 47 25 S 999,2 6 0,6
27.10.2020 23:00:00 9,7 8,7 9,5 29 16 47 25 S 999,2 7 0,5
27.10.2020 22:00:00 10,0 8,3 9,7 29 16 47 25 S 999,5 26 0,0
27.10.2020 21:00:00 10,0 7,8 9,5 29 16 47 25 S 999,8 55 0,6
27.10.2020 20:00:00 10,8 6,6 10,4 32 18 54 29 S 1000,2 59 0,0
27.10.2020 19:00:00 10,5 6,7 10,1 25 14 43 23 S 1001,0 52 0,0
27.10.2020 18:00:00 10,5 7,3 10,1 29 16 36 19 S 1001,3 61 0,0
27.10.2020 17:00:00 10,3 7,4 9,8 22 12 40 21 S 1001,8 66 0,0
27.10.2020 16:00:00 10,3 7,7 9,9 22 12 40 21 S 1002,4 44 0,0
27.10.2020 15:00:00 10,9 7,5 10,9 22 12 36 19 SSW 1002,6 62 0,0
27.10.2020 14:00:00 10,7 7,4 10,7 22 12 43 23 S 1003,1 56 0,0
27.10.2020 13:00:00 10,7 7,7 10,5 25 14 40 21 SSW 1003,4 60 0,0
27.10.2020 12:00:00 10,2 7,8 10,5 22 12 36 19 SSW 1003,7 36 0,0
27.10.2020 11:00:00 9,9 7,9 9,9 25 14 36 19 SSW 1003,7 31 0,0
27.10.2020 10:00:00 9,3 7,7 9,4 22 12 32 18 SSW 1003,2 27 0,0
27.10.2020 09:00:00 8,9 7,6 8,8 22 12 32 18 SSW 1003,2 19 0,0
27.10.2020 08:00:00 8,8 7,5 8,6 22 12 36 19 SSW 1002,8 17 0,0
27.10.2020 07:00:00 8,6 7,7 8,1 18 10 32 18 S 1002,3 16 0,0
27.10.2020 06:00:00 8,0 7,2 7,3 14 8 29 16 S 1001,9 15 0,0
27.10.2020 05:00:00 8,1 7,1 7,4 14 8 25 14 SSW 1001,5 25 0,0
27.10.2020 04:00:00 8,1 7,3 7,5 14 8 25 14 S 1000,9 24 0,2
27.10.2020 03:00:00 7,8 7,0 7,2 14 8 22 12 S 1001,1 26 0,4
27.10.2020 02:00:00 8,6 7,2 8,1 14 8 32 18 SW 1001,5 1,2 0,0
27.10.2020 01:00:00 8,9 7,1 8,1 22 12 29 16 SSW 1000,8 1,7 0,0
27.10.2020 00:00:00 9,4 7,2 8,8 22 12 32 18 SSW 1000,7 1,8 0,0
26.10.2020 23:00:00 9,3 6,8 8,6 22 12 36 19 SSW 1000,7 2,0 0,0
26.10.2020 22:00:00 9,3 6,9 8,7 22 12 36 19 S 1000,7 2,3 0,0
26.10.2020 21:00:00 8,9 6,7 8,2 22 12 29 16 S 1000,4 2,3 0,0
26.10.2020 20:00:00 9,1 6,7 8,2 18 10 32 18 S 1000,0 2,3 0,0
26.10.2020 19:00:00 9,2 7,0 8,6 22 12 32 18 S 1000,0 2,4 0,0
26.10.2020 18:00:00 9,8 7,5 9,5 18 10 29 16 S 999,9 2,2 0,0
26.10.2020 17:00:00 10,3 7,0 9,9 22 12 36 19 S 1000,3 2,2 0,0
26.10.2020 16:00:00 10,8 6,8 10,2 18 10 29 16 S 1000,0 2,1 0,0
26.10.2020 15:00:00 11,2 6,3 11,1 22 12 36 19 SSW 1000,0 1,5 0,0
26.10.2020 14:00:00 11,6 6,6 11,5 22 12 40 21 SSW 999,7 1,6 0,0
26.10.2020 13:00:00 11,9 7,0 11,4 22 12 36 19 SSW 999,7 1,8 0,0
26.10.2020 12:00:00 10,9 7,1 11,1 25 14 40 21 SSW 1000,1 62 0,0
26.10.2020 11:00:00 10,2 7,8 10,1 18 10 32 18 SSW 1000,3 48 0,0
26.10.2020 10:00:00 9,5 7,5 9,3 18 10 32 18 SSW 999,5 55 0,0
26.10.2020 09:00:00 9,7 8,0 9,5 22 12 32 18 SSW 999,8 47 0,0
26.10.2020 08:00:00 9,2 7,9 8,8 14 8 25 14 S 999,4 35 0,0
26.10.2020 07:00:00 9,0 8,0 8,4 14 8 22 12 S 998,9 34 0,0
26.10.2020 06:00:00 9,7 8,6 9,0 18 10 25 14 SSW 999,0 36 0,0
26.10.2020 05:00:00 9,7 9,0 9,3 18 10 25 14 S 999,5 30 0,0
26.10.2020 04:00:00 9,4 8,5 8,8 14 8 22 12 S 999,2 43 0,0
26.10.2020 03:00:00 10,0 9,1 9,7 14 8 22 12 S 999,2 52 0,0
26.10.2020 02:00:00 9,9 9,1 9,5 14 8 25 14 S 999,6 51 0,1
26.10.2020 01:00:00 9,9 9,0 9,6 14 8 25 14 S 1000,1 58 0,0
26.10.2020 00:00:00 9,6 8,9 9,2 14 8 22 12 S 1000,1 44 0,0
25.10.2020 23:00:00 9,2 8,7 8,3 11 6 18 10 S 1000,0 44 0,0
25.10.2020 22:00:00 9,6 8,8 8,8 14 8 22 12 SSW 1000,5 57 0,0
25.10.2020 21:00:00 9,7 8,6 8,8 11 6 25 14 SSW 1000,2 54 0,0
25.10.2020 20:00:00 10,5 9,1 9,6 18 10 25 14 S 1000,3 53 0,0
25.10.2020 19:00:00 11,3 9,9 10,6 18 10 25 14 S 1000,8 56 0,0
25.10.2020 18:00:00 11,7 10,3 11,3 14 8 25 14 S 1000,9 61 0,0
25.10.2020 17:00:00 11,8 10,3 11,4 14 8 25 14 SSW 1000,5 75 0,0
25.10.2020 16:00:00 12,0 10,5 11,7 14 8 22 12 S 1000,4 68 0,0
25.10.2020 15:00:00 12,1 10,9 11,9 14 8 29 16 SSW 1000,6 71 0,1
25.10.2020 14:00:00 11,9 10,6 11,8 14 8 29 16 S 1000,5 73 0,0
25.10.2020 13:00:00 12,2 10,2 12,1 18 10 29 16 SSW 1001,3 67 0,0
25.10.2020 12:00:00 12,5 10,4 12,5 22 12 40 21 SSW 1001,2 75 0,0
25.10.2020 11:00:00 12,3 10,3 12,2 25 14 36 19 SSW 1000,9 75 0,0
25.10.2020 10:00:00 11,7 10,0 11,5 25 14 40 21 S 1000,8 75 0,0
25.10.2020 09:00:00 11,8 10,3 11,4 22 12 29 16 S 1000,8 75 0,7
25.10.2020 08:00:00 10,7 10,1 10,7 18 10 40 21 WSW 1000,9 11 2,1
25.10.2020 07:00:00 10,8 9,8 10,8 22 12 58 31 W 1000,7 4,7 1,5
25.10.2020 06:00:00 14,7 11,0 14,2 25 14 43 23 S 999,7 75 0,0
25.10.2020 05:00:00 14,8 11,2 14,4 29 16 47 25 S 1000,3 75 0,0
25.10.2020 04:00:00 14,9 11,3 14,3 29 16 54 29 S 1000,6 75 0,0
25.10.2020 03:00:00 15,1 11,4 14,5 32 18 50 27 S 1001,1 75 0,0
25.10.2020 02:00:00 15,0 11,5 14,5 29 16 50 27 S 1002,0 75 0,0
25.10.2020 01:00:00 - - - - - - - - - - -
25.10.2020 00:00:00 14,6 11,7 14,1 29 16 43 23 S 1002,9 75 0,0
24.10.2020 23:00:00 14,5 11,7 14,0 32 18 50 27 S 1003,5 75 0,0
24.10.2020 22:00:00 14,3 11,7 13,8 29 16 47 25 S 1004,3 75 0,0
24.10.2020 21:00:00 14,1 11,6 13,4 29 16 43 23 S 1004,8 75 0,0
24.10.2020 20:00:00 13,6 11,5 13,1 25 14 40 21 S 1005,3 75 0,0
24.10.2020 19:00:00 13,8 11,9 13,2 25 14 40 21 S 1006,5 75 0,0
24.10.2020 18:00:00 13,1 11,9 12,7 25 14 40 21 S 1007,1 52 0,1
24.10.2020 17:00:00 13,1 11,8 13,0 22 12 36 19 S 1007,5 11 0,0
24.10.2020 16:00:00 13,9 10,8 13,7 18 10 36 19 S 1008,1 73 0,0
24.10.2020 15:00:00 14,2 10,7 14,0 22 12 40 21 SSW 1008,6 75 0,0
24.10.2020 14:00:00 14,3 11,4 14,7 25 14 40 21 SSW 1008,9 74 0,0
24.10.2020 13:00:00 13,4 11,7 13,3 22 12 36 19 SSW 1009,4 57 0,0
24.10.2020 12:00:00 12,9 12,0 13,2 22 12 36 19 SSW 1009,7 27 0,0
24.10.2020 11:00:00 12,6 11,4 12,6 18 10 32 18 SSW 1010,0 16 0,0
24.10.2020 10:00:00 12,5 10,6 12,5 18 10 25 14 SSW 1010,2 46 0,0
24.10.2020 09:00:00 12,0 10,3 11,9 18 10 25 14 SSW 1010,2 37 0,0
24.10.2020 08:00:00 10,9 10,0 10,5 14 8 25 14 SSW 1010,1 20 0,0
24.10.2020 07:00:00 10,1 9,6 9,4 11 6 25 14 SSW 1009,9 15 0,0
24.10.2020 06:00:00 11,3 10,3 10,9 18 10 36 19 SW 1009,8 23 0,0
24.10.2020 05:00:00 11,7 10,8 11,5 18 10 32 18 SSW 1009,7 21 0,0
24.10.2020 04:00:00 11,5 10,8 11,4 18 10 29 16 SSW 1009,6 23 0,0
24.10.2020 03:00:00 11,2 9,9 10,7 14 8 25 14 SW 1009,7 45 0,0
24.10.2020 02:00:00 11,9 10,3 11,4 14 8 29 16 SSW 1009,6 40 0,0
24.10.2020 01:00:00 12,4 10,6 11,8 18 10 36 19 SW 1009,6 30 0,0
24.10.2020 00:00:00 12,4 10,6 11,9 22 12 32 18 SW 1009,5 32 0,0
23.10.2020 23:00:00 12,5 10,9 11,9 14 8 29 16 SSW 1009,3 19 0,0
23.10.2020 22:00:00 12,8 11,4 12,2 18 10 25 14 SSW 1009,0 13 0,0
23.10.2020 21:00:00 13,0 11,9 12,4 14 8 22 12 SSW 1008,7 10 0,0
23.10.2020 20:00:00 13,2 12,2 12,7 11 6 18 10 SSW 1008,6 9 0,0
23.10.2020 19:00:00 13,3 12,2 12,9 14 8 18 10 SSW 1009,0 12 0,0
23.10.2020 18:00:00 13,3 12,0 12,6 14 8 18 10 SSW 1008,6 14 0,0
23.10.2020 17:00:00 14,3 12,6 13,7 14 8 22 12 S 1008,4 17 0,0
23.10.2020 16:00:00 15,1 12,6 15,0 14 8 25 14 S 1008,7 17 0,0
23.10.2020 15:00:00 15,6 12,1 16,0 14 8 25 14 S 1008,6 15 0,0
23.10.2020 14:00:00 16,0 12,4 16,6 14 8 25 14 S 1008,9 6 0,0
23.10.2020 13:00:00 14,7 12,0 15,7 14 8 18 10 S 1009,6 11 0,0
23.10.2020 12:00:00 12,9 12,4 13,0 7 4 14 8 S 1010,2 8 0,0
23.10.2020 11:00:00 10,7 10,6 11,2 7 4 14 8 S 1010,9 0,6 0,0
23.10.2020 10:00:00 10,4 10,3 10,7 7 4 14 8 S 1010,9 0,3 0,0
23.10.2020 09:00:00 9,4 9,4 9,5 7 4 11 6 SSE 1010,9 0,2 0,0
23.10.2020 08:00:00 8,6 8,5 8,8 7 4 11 6 S 1010,7 0,2 0,0
23.10.2020 07:00:00 8,4 8,3 7,9 7 4 11 6 S 1010,5 0,2 0,0
23.10.2020 06:00:00 8,2 8,2 6,9 7 4 11 6 S 1010,5 0,3 0,0
23.10.2020 05:00:00 7,8 7,7 6,8 7 4 11 6 SSW 1010,5 1,8 0,0
23.10.2020 04:00:00 7,7 7,6 6,6 7 4 11 6 SSW 1011,0 2,0 0,0
23.10.2020 03:00:00 8,1 8,0 7,3 7 4 18 10 SW 1011,0 5 0,0
23.10.2020 02:00:00 9,6 9,2 8,6 11 6 14 8 SSW 1011,2 13 0,0
23.10.2020 01:00:00 9,8 9,2 8,9 11 6 18 10 SSW 1011,0 19 0,0
23.10.2020 00:00:00 10,5 9,8 9,9 11 6 14 8 SSW 1011,2 23 0,0
22.10.2020 23:00:00 10,5 9,6 9,6 11 6 18 10 SW 1010,8 27 0,0
22.10.2020 22:00:00 11,3 9,9 10,8 14 8 25 14 SW 1010,8 37 0,0
22.10.2020 21:00:00 11,8 9,8 11,0 14 8 25 14 SSW 1010,5 44 0,0
22.10.2020 20:00:00 12,2 9,9 11,5 14 8 25 14 SW 1010,2 51 0,0
22.10.2020 19:00:00 12,8 10,3 11,8 14 8 22 12 SW 1010,1 72 0,0
22.10.2020 18:00:00 13,0 10,4 12,4 14 8 25 14 SW 1009,9 75 0,0
22.10.2020 17:00:00 14,4 10,5 14,0 22 12 36 19 SW 1009,4 75 0,0
22.10.2020 16:00:00 14,5 11,2 14,2 18 10 32 18 SSW 1009,5 26 0,0
22.10.2020 15:00:00 15,2 10,4 14,9 25 14 36 19 SW 1009,4 69 0,0

tt = temperature
td = dewpoint
tt 5cm = temperature 5cm
ff = wind speed
fx = gusts
dd = wind direction
ppp = reduced air pressure
vv = visibility
rr = precipitation

Next stations